Weather History for CWSP - November, 2012

Change the Weather History Date:

Sunday, November 18, 2012

  Actual Average Record
Temperature  
Mean Temperature 46 °F -  
Max Temperature 50 °F - - ()
Min Temperature 42 °F - - ()
Degree Days  
Heating Degree Days 19    
Moisture  
Dew Point 42 °F    
Average Humidity 85    
Maximum Humidity 93    
Minimum Humidity 71    
Precipitation  
Precipitation 0.16 in - - ()
Sea Level Pressure  
Sea Level Pressure 29.56 in    
Wind  
Wind Speed 6 mph ()    
Max Wind Speed 17 mph    
Max Gust Speed -    
T = Trace of Precipitation, MM = Missing Value Source: Averaged Metar Reports

Daily Weather History Graph

Daily Weather History Graph

Search for Another Location

Airport or City:

Trip Planner

Search our weather history database for the weather conditions in past years. The results will help you decide how hot, cold, wet, or windy it might be!

Date:

Astronomy

Nov. 18, 2012 Rise Set
Actual Time 7:28 AM PST 4:32 PM PST
Civil Twilight 6:54 AM PST 5:07 PM PST
Nautical Twilight 6:15 AM PST 5:45 PM PST
Astronomical Twilight 5:38 AM PST 6:22 PM PST
Moon 11:53 AM PST (11/18) 10:06 PM PST (11/18)
Length of Visible Light 10h 13m
Length of Day
9h 04m
Waxing Crescent, 31% of the Moon is Illuminated
Nov 18
Waxing Crescent
Nov 20
First Quarter
Nov 28
Full
Dec 6
Last Quarter
Dec 13
New

Hourly Weather History & Observations

Time (PST) Temp. Windchill Dew Point Humidity Pressure Visibility Wind Dir Wind Speed Gust Speed Precip Events Conditions
12:00 AM 45.3 °F 43.0 °F 39.9 °F 81% 29.62 in - SSE 4.6 mph - 0.02 in   Unknown
1:00 AM 43.0 °F - 40.5 °F 91% 29.63 in - NNE 2.3 mph - 0.05 in   Unknown
2:00 AM 43.0 °F 39.5 °F 40.6 °F 91% 29.65 in - ENE 5.8 mph - 0.05 in   Unknown
3:00 AM 43.0 °F 38.8 °F 40.1 °F 90% 29.65 in - East 6.9 mph - N/A   Unknown
4:00 AM 44 °F - 40 °F 83% 29.65 in - East 9.2 mph - -  
4:00 AM 43.5 °F 38.3 °F 40.5 °F 89% 29.65 in - East 9.2 mph - 0.02 in   Unknown
5:00 AM 43.2 °F 38.4 °F 40.5 °F 90% 29.66 in - ENE 8.1 mph - 0.02 in   Unknown
6:00 AM 43.3 °F 39.2 °F 41.2 °F 92% 29.66 in - East 6.9 mph - N/A   Unknown
7:00 AM 42.4 °F 38.1 °F 40.5 °F 93% 29.66 in - ENE 6.9 mph - 0.07 in   Unknown
8:00 AM 42.4 °F 38.8 °F 40.5 °F 93% 29.65 in - NE 5.8 mph - 0.01 in   Unknown
9:00 AM 43.5 °F 39.4 °F 40.6 °F 90% 29.65 in - NE 6.9 mph - 0.01 in   Unknown
10:00 AM 47 °F - 41 °F 71% 29.65 in - NW 3.5 mph - -  
10:00 AM 47.5 °F - 40.6 °F 77% 29.65 in - NW 3.5 mph - 0.01 in   Unknown
11:00 AM 49.1 °F - 41.5 °F 75% 29.64 in - North 1.2 mph - N/A   Unknown
12:00 PM 45.9 °F 40.4 °F 42.4 °F 88% 29.61 in - East 11.5 mph - N/A   Unknown
1:00 PM 46.9 °F - 43.7 °F 88% 29.60 in - ESE 12.7 mph - N/A   Unknown
2:00 PM 47.8 °F - 44.1 °F 87% 29.55 in - East 8.1 mph - N/A   Unknown
3:00 PM 46.9 °F - 41.0 °F 80% 29.50 in - ENE 5.8 mph - N/A   Unknown
4:00 PM 46 °F - 41 °F 78% 29.47 in - East 11.5 mph - -  
4:00 PM 46.4 °F 41.1 °F 41.4 °F 83% 29.47 in - East 11.5 mph - N/A   Unknown
5:00 PM 45.5 °F 42.5 °F 42.3 °F 88% 29.42 in - ENE 5.8 mph - 0.01 in   Unknown
6:00 PM 45.3 °F 38.7 °F 42.8 °F 91% 29.39 in - East 15.0 mph - 0.05 in   Unknown
7:00 PM 46.0 °F 41.0 °F 43.2 °F 90% 29.36 in - NE 10.4 mph - 0.06 in   Unknown
8:00 PM 48.6 °F - 43.3 °F 82% 29.42 in - West 4.6 mph - N/A   Unknown
9:00 PM 50.4 °F - 44.8 °F 81% 29.44 in - West 17.3 mph - N/A   Unknown
10:00 PM 50 °F - 45 °F 76% 29.46 in - NW 5.8 mph - -  
10:00 PM 50.2 °F - 44.8 °F 82% 29.46 in - NW 5.8 mph - N/A   Unknown
11:00 PM 49.1 °F - 44.4 °F 84% 29.44 in - NE 4.6 mph - 0.01 in   Unknown